FW6550 Weather Reports


time (UTC)temp
F
wind
direction
speed
knots
gust
knots
rain 1hr
in
rain 24hr
in
rain mn
in
humidity
%
barometer
mb
20260904115517 75 0 0.0 0.0 0.00 0.03 0.00 16 1015.8
20260904115018 75 0 0.0 0.0 0.00 0.03 0.00 17 1015.6
20260904114537 75 0 0.0 0.0 0.00 0.03 0.00 18 1015.7
20260904114022 75 0 0.0 0.0 0.00 0.03 0.00 20 1015.6
20260904113521 75 0 0.0 0.0 0.00 0.03 0.00 22 1015.5
20260904113041 75 0 0.0 0.0 0.00 0.03 0.00 23 1015.5
20260904112518 75 0 0.0 0.0 0.00 0.03 0.00 24 1015.5
20260904112020 75 0 0.0 0.0 0.00 0.03 0.00 23 1015.6
20260904111542 75 0 0.0 0.0 0.00 0.03 0.00 24 1015.4
20260904111017 75 0 0.0 0.0 0.00 0.03 0.00 26 1015.4
20260904110520 76 0 0.0 0.0 0.00 0.03 0.00 27 1015.4
20260904110040 76 0 0.0 0.0 0.00 0.03 0.00 26 1015.5
20260904105517 76 0 0.0 0.0 0.00 0.03 0.00 28 1015.5
20260904105017 76 0 0.0 0.0 0.00 0.03 0.00 30 1015.3
20260904104539 76 0 0.0 0.0 0.00 0.03 0.00 32 1015.3
20260904104024 76 0 0.0 0.0 0.00 0.03 0.00 32 1015.1
20260904103522 76 0 0.0 0.0 0.00 0.03 0.00 32 1015.3
20260904103040 76 0 0.0 0.0 0.00 0.03 0.00 31 1015.3
20260904102520 76 0 0.0 0.0 0.00 0.03 0.00 31 1015.3
20260904102018 76 0 0.0 0.0 0.00 0.03 0.00 34 1015.2
20260904101541 76 0 0.0 0.0 0.00 0.03 0.00 34 1015.1
20260904101020 76 0 0.0 0.0 0.00 0.03 0.00 36 1015.1
20260904100522 76 0 0.0 0.0 0.00 0.03 0.00 38 1015.2
20260904100044 76 0 0.0 0.0 0.00 0.03 0.00 37 1015.1
20260904095523 76 0 0.0 0.0 0.00 0.03 0.00 37 1015.1
20260904095022 76 0 0.0 0.0 0.00 0.03 0.00 40 1015.1
20260904094536 76 0 0.0 0.0 0.00 0.03 0.00 38 1014.9
20260904094021 76 0 0.0 0.0 0.00 0.03 0.00 40 1014.9
20260904093519 77 0 0.0 0.0 0.00 0.03 0.00 41 1014.9
20260904093055 77 0 0.0 0.0 0.00 0.03 0.00 41 1014.8
20260904092519 77 0 0.0 0.0 0.00 0.03 0.00 43 1014.7
20260904092023 77 0 0.0 0.0 0.00 0.03 0.00 43 1014.7
20260904091540 77 0 0.0 0.0 0.00 0.03 0.00 44 1014.8
20260904091016 77 0 0.0 0.0 0.00 0.03 0.00 44 1014.6
20260904090521 77 0 0.0 0.0 0.00 0.03 0.00 44 1014.6
20260904090041 77 0 0.0 0.0 0.00 0.03 0.00 46 1014.6
20260904085538 77 0 0.0 0.0 0.00 0.03 0.00 46 1014.6
20260904085022 77 0 0.0 0.0 0.00 0.03 0.00 45 1014.5
20260904084542 77 0 0.0 0.0 0.00 0.03 0.00 47 1014.4
20260904084018 77 0 0.0 0.0 0.00 0.03 0.00 48 1014.4
20260904083520 77 0 0.0 0.0 0.00 0.03 0.00 49 1014.6
20260904083040 77 0 0.0 0.0 0.00 0.03 0.00 49 1014.5
20260904082520 77 0 0.0 0.0 0.00 0.03 0.00 49 1014.6
20260904082019 77 0 0.0 0.0 0.00 0.03 0.00 49 1014.5
20260904081540 77 0 0.0 0.0 0.00 0.03 0.00 49 1014.5
20260904081017 77 0 0.0 1.7 0.00 0.03 0.00 49 1014.5
20260904080521 77 0 0.0 1.7 0.00 0.03 0.00 48 1014.5
20260904080044 77 328 0.0 0.9 0.00 0.03 0.00 44 1014.5
20260904075518 77 0 0.0 0.9 0.00 0.03 0.00 44 1014.5
20260904075021 77 0 0.0 0.0 0.00 0.03 0.00 46 1014.6
20260904074541 77 0 0.0 0.0 0.00 0.03 0.00 46 1014.5
20260904074023 77 0 0.0 0.0 0.00 0.03 0.00 46 1014.5
20260904073520 77 0 0.0 0.0 0.00 0.03 0.00 46 1014.5
20260904073052 77 0 0.0 0.0 0.00 0.03 0.00 46 1014.6
20260904072519 78 0 0.0 0.0 0.00 0.03 0.00 47 1014.6
20260904072018 78 0 0.0 0.0 0.00 0.03 0.00 48 1014.6
20260904071540 78 0 0.0 0.0 0.00 0.03 0.00 48 1014.5
20260904071022 78 0 0.0 0.0 0.00 0.03 0.00 48 1014.5
20260904070520 78 0 0.0 0.0 0.00 0.03 0.00 48 1014.6
20260904070042 78 0 0.0 0.0 0.00 0.03 0.00 50 1014.6
20260904065519 78 0 0.0 0.0 0.00 0.03 0.00 48 1014.7
20260904065017 78 0 0.0 0.0 0.00 0.03 0.00 50 1014.7
20260904064541 78 0 0.0 0.0 0.00 0.03 0.00 50 1014.7
20260904064017 78 0 0.0 0.0 0.00 0.03 0.00 51 1014.8
20260904063520 78 0 0.0 0.0 0.00 0.03 0.00 52 1014.6
20260904063043 78 0 0.0 0.0 0.00 0.03 0.00 54 1014.8
20260904062522 78 0 0.0 0.0 0.00 0.03 0.00 52 1014.9
20260904062021 78 0 0.0 0.0 0.00 0.03 0.00 52 1015.0
20260904061537 78 0 0.0 0.0 0.00 0.03 0.00 53 1015.0
20260904061018 78 0 0.0 0.0 0.00 0.03 0.00 55 1015.0
20260904060518 78 0 0.0 0.0 0.00 0.03 0.00 58 1015.0
20260904060041 78 0 0.0 0.0 0.00 0.03 0.00 59 1014.9
20260904055521 78 0 0.0 0.0 0.00 0.03 0.00 60 1014.9
20260904055020 78 0 0.0 0.0 0.00 0.03 0.00 65 1015.0
20260904054540 78 0 0.0 0.0 0.00 0.03 0.00 65 1014.9
20260904054020 79 0 0.0 0.0 0.00 0.03 0.00 64 1014.9
20260904053517 79 0 0.0 0.0 0.00 0.03 0.00 63 1014.9
20260904053036 79 0 0.0 0.0 0.00 0.03 0.00 63 1015.0
20260904052520 79 0 0.0 0.0 0.00 0.03 0.00 66 1015.0
20260904052024 79 0 0.0 0.0 0.00 0.03 0.00 64 1014.9
20260904051542 79 0 0.0 0.0 0.00 0.03 0.00 62 1014.9
20260904051020 79 0 0.0 0.0 0.00 0.03 0.00 61 1014.9
20260904050519 79 0 0.0 0.0 0.00 0.03 0.00 61 1015.0
20260904050041 79 0 0.0 0.0 0.00 0.03 0.00 63 1014.8
20260904045517 79 0 0.0 0.0 0.00 0.03 0.03 63 1014.9
20260904045020 79 0 0.0 0.0 0.00 0.03 0.03 62 1014.7
20260904044548 79 0 0.0 0.0 0.00 0.03 0.03 62 1014.7
20260904044017 80 0 0.0 0.0 0.00 0.03 0.03 62 1014.9
20260904043519 80 0 0.0 0.0 0.00 0.03 0.03 60 1014.8
20260904043042 80 0 0.0 0.0 0.00 0.03 0.03 59 1015.0
20260904042520 80 0 0.0 0.0 0.00 0.03 0.03 61 1015.0
20260904042018 80 0 0.0 0.0 0.00 0.03 0.03 62 1015.0
20260904041552 80 0 0.0 0.0 0.00 0.03 0.03 64 1015.0
20260904041020 80 0 0.0 0.0 0.00 0.03 0.03 62 1014.9
20260904040520 80 0 0.0 0.0 0.00 0.03 0.03 63 1014.8
20260904040041 80 0 0.0 0.0 0.00 0.03 0.03 65 1014.8
20260904035520 80 0 0.0 0.0 0.00 0.03 0.03 65 1014.8
20260904035020 80 0 0.0 0.0 0.00 0.03 0.03 66 1015.0
20260904034541 81 0 0.0 0.0 0.00 0.03 0.03 66 1015.0
20260904034021 81 0 0.0 0.0 0.00 0.03 0.03 67 1015.0
20260904033522 81 0 0.0 0.0 0.00 0.03 0.03 69 1015.2
20260904033055 81 0 0.0 0.0 0.00 0.03 0.03 68 1015.2
20260904032520 81 0 0.0 0.0 0.00 0.03 0.03 69 1015.1
20260904032020 81 0 0.0 0.0 0.00 0.03 0.03 67 1015.2
20260904031540 81 0 0.0 0.0 0.00 0.03 0.03 68 1015.3
20260904031020 82 0 0.0 0.0 0.00 0.03 0.03 69 1015.2
20260904030525 82 0 0.0 0.0 0.00 0.03 0.03 70 1015.5
20260904030038 82 0 0.0 0.0 0.00 0.03 0.03 71 1015.4
20260904025523 82 0 0.0 0.0 0.00 0.03 0.03 72 1015.5
20260904025021 82 0 0.0 0.0 0.00 0.03 0.03 73 1015.5
20260904024544 82 0 0.0 0.0 0.00 0.03 0.03 74 1015.5
20260904024018 82 0 0.0 0.0 0.00 0.03 0.03 74 1015.3
20260904023524 82 0 0.0 0.0 0.00 0.03 0.03 74 1015.5
20260904023040 82 0 0.0 0.0 0.00 0.03 0.03 74 1015.4
20260904022520 83 0 0.0 0.9 0.00 0.03 0.03 73 1015.3
20260904022020 83 0 0.0 1.7 0.00 0.03 0.03 74 1015.3
20260904021540 83 0 0.0 1.7 0.00 0.03 0.03 74 1015.2
20260904021027 82 0 0.0 0.9 0.00 0.03 0.03 74 1015.2
20260904020524 82 0 0.0 0.0 0.00 0.03 0.03 74 1015.1
20260904020053 83 0 0.0 0.0 0.00 0.03 0.03 74 1015.2
20260904015521 83 0 0.0 0.0 0.00 0.03 0.03 74 1015.0
20260904015021 83 0 0.0 0.0 0.00 0.03 0.03 74 1015.1
20260904014613 83 0 0.0 0.0 0.00 0.03 0.03 74 1015.0
20260904014021 83 0 0.0 0.0 0.00 0.03 0.03 74 1014.9
20260904013524 83 0 0.0 0.0 0.00 0.03 0.03 74 1014.8
20260904013040 83 0 0.0 0.0 0.00 0.03 0.03 74 1014.8
20260904012517 84 0 0.0 0.0 0.00 0.03 0.03 74 1014.7
20260904012020 84 0 0.0 0.0 0.00 0.03 0.03 74 1014.6
20260904011547 84 0 0.0 0.0 0.00 0.03 0.03 74 1014.6
20260904011024 84 0 0.0 0.0 0.00 0.03 0.03 74 1014.8
20260904010520 84 0 0.0 0.0 0.00 0.03 0.03 73 1014.7
20260904010043 85 0 0.0 0.0 0.00 0.03 0.03 73 1014.6
20260904005520 85 0 0.0 0.0 0.00 0.03 0.03 73 1014.6
20260904005020 85 0 0.0 0.0 0.00 0.03 0.03 72 1014.4
20260904004544 86 0 0.0 0.0 0.00 0.03 0.03 72 1014.4
20260904004024 86 0 0.0 0.0 0.00 0.03 0.03 71 1014.2
20260904003522 86 0 0.0 0.0 0.00 0.03 0.03 71 1014.2
20260904003050 87 0 0.0 0.0 0.00 0.03 0.03 70 1014.1
20260904002520 87 0 0.0 0.0 0.00 0.03 0.03 70 1014.3
20260904002017 88 0 0.0 0.0 0.00 0.03 0.03 69 1014.3
20260904001541 88 0 0.0 0.0 0.00 0.03 0.03 68 1014.3
20260904001020 88 0 0.0 0.0 0.00 0.03 0.03 67 1014.3
20260904000525 89 0 0.0 0.0 0.00 0.03 0.03 67 1014.5
20260904000044 89 0 0.0 0.9 0.00 0.03 0.03 67 1014.5
20260903235524 89 0 0.0 0.9 0.00 0.03 0.03 67 1014.4
20260903235021 89 0 0.0 0.0 0.00 0.03 0.03 65 1014.4
20260903234541 89 0 0.0 0.0 0.00 0.03 0.03 64 1014.4
20260903234019 90 0 0.0 0.0 0.00 0.03 0.03 63 1014.4
20260903233524 90 0 0.0 0.0 0.00 0.03 0.03 64 1014.5
20260903233041 90 0 0.0 0.0 0.00 0.03 0.03 63 1014.6
20260903232522 89 0 0.0 0.9 0.00 0.03 0.03 63 1014.5
20260903232023 89 0 0.0 0.9 0.00 0.03 0.03 63 1014.4
20260903231544 89 0 0.0 0.9 0.00 0.03 0.03 63 1014.6
20260903231023 89 0 0.0 0.9 0.00 0.03 0.03 63 1014.5
20260903230523 89 0 0.0 0.9 0.00 0.03 0.03 64 1014.5
20260903230053 88 0 0.0 0.9 0.00 0.03 0.03 65 1014.5
20260903225519 88 0 0.0 0.9 0.00 0.03 0.03 65 1014.4
20260903225020 88 0 0.0 0.9 0.00 0.03 0.03 67 1014.4
20260903224540 87 0 0.0 1.7 0.00 0.03 0.03 67 1014.4
20260903224020 87 0 0.0 1.7 0.00 0.03 0.03 66 1014.3
20260903223520 87 0 0.0 3.5 0.00 0.03 0.03 67 1014.3
20260903223044 87 0 0.0 3.5 0.00 0.03 0.03 67 1014.2
20260903222518 87 0 0.0 1.7 0.00 0.03 0.03 67 1014.3
20260903222021 87 275 0.0 1.7 0.00 0.03 0.03 68 1014.2
20260903221543 87 0 0.0 2.6 0.00 0.03 0.03 68 1014.2
20260903221022 87 334 0.0 2.6 0.00 0.03 0.03 69 1014.2
20260903220524 86 329 0.0 1.7 0.00 0.03 0.03 69 1014.2
20260903220042 86 0 0.0 3.5 0.00 0.03 0.03 68 1014.3
20260903215521 86 0 0.0 3.5 0.00 0.03 0.03 68 1014.3
20260903215020 86 0 0.0 3.5 0.00 0.03 0.03 67 1014.2
20260903214546 86 0 0.0 4.3 0.00 0.03 0.03 68 1014.2
20260903214027 87 325 0.9 4.3 0.00 0.03 0.03 66 1014.3
20260903213522 87 0 0.0 4.3 0.00 0.03 0.03 65 1014.3
20260903213050 88 15 0.0 4.3 0.00 0.03 0.03 65 1014.3
20260903212521 89 293 0.9 3.5 0.00 0.03 0.03 65 1014.5
20260903212025 89 285 0.0 2.6 0.00 0.03 0.03 66 1014.8
20260903211542 89 285 0.0 3.5 0.00 0.03 0.03 67 1014.8
20260903211019 89 0 0.0 3.5 0.00 0.03 0.03 65 1014.8
20260903210518 89 302 0.0 3.5 0.01 0.03 0.03 67 1014.8
20260903210040 89 0 0.0 4.3 0.03 0.03 0.03 66 1014.7
20260903205524 89 270 0.9 4.3 0.03 0.03 0.03 66 1014.6
20260903205020 89 34 0.0 1.7 0.03 0.03 0.03 67 1014.7
20260903204544 89 0 0.0 1.7 0.03 0.03 0.03 67 1014.4
20260903204022 89 0 0.0 3.5 0.03 0.03 0.03 71 1014.3
20260903203522 89 0 0.0 3.5 0.03 0.03 0.03 72 1014.5
20260903203043 89 0 0.0 3.5 0.03 0.03 0.03 71 1014.6
20260903202520 89 349 0.0 3.5 0.03 0.03 0.03 70 1014.5
20260903202020 91 0 0.0 2.6 0.03 0.03 0.03 72 1014.7
20260903201542 92 0 0.0 2.6 0.03 0.03 0.03 67 1014.2
20260903201017 95 360 0.0 4.3 0.03 0.03 0.03 64 1014.2
20260903200517 98 0 0.0 4.3 0.02 0.02 0.02 59 1014.3
20260903200042 100 42 0.9 4.3 0.00 0.00 0.00 47 1014.4
20260903195521 100 18 0.9 3.5 0.00 0.00 0.00 44 1014.4
20260903195023 100 0 0.0 1.7 0.00 0.00 0.00 46 1014.5
20260903194542 100 0 0.0 3.5 0.00 0.00 0.00 45 1014.5
20260903194019 100 0 0.0 4.3 0.00 0.00 0.00 45 1014.7
20260903193525 100 146 0.0 4.3 0.00 0.00 0.00 46 1014.7
20260903193042 100 0 0.9 3.5 0.00 0.00 0.00 44 1014.8
20260903192521 100 0 0.0 3.5 0.00 0.00 0.00 44 1014.8
20260903192020 100 145 0.0 3.5 0.00 0.00 0.00 43 1014.9
20260903191541 100 0 0.0 6.1 0.00 0.00 0.00 44 1015.0
20260903191024 100 0 0.0 7.0 0.00 0.00 0.00 43 1015.0
20260903190524 101 12 0.9 7.0 0.00 0.00 0.00 42 1015.1
20260903190047 102 0 0.0 4.3 0.00 0.00 0.00 44 1015.0
20260903185522 102 215 0.9 4.3 0.00 0.00 0.00 43 1015.1
20260903185025 102 66 0.9 3.5 0.00 0.00 0.00 43 1015.2
20260903184544 102 0 0.0 3.5 0.00 0.00 0.00 46 1015.1
20260903184018 101 0 0.9 3.5 0.00 0.00 0.00 46 1015.2
20260903183520 101 0 0.9 4.3 0.00 0.00 0.00 44 1015.2
20260903183042 101 52 0.9 4.3 0.00 0.00 0.00 46 1015.3
20260903182517 101 0 0.0 3.5 0.00 0.00 0.00 45 1015.4
20260903182018 101 0 0.0 4.3 0.00 0.00 0.00 43 1015.7
20260903181540 101 0 0.0 5.2 0.00 0.00 0.00 45 1015.6
20260903181025 101 0 0.9 5.2 0.00 0.00 0.00 48 1015.5
20260903180522 101 0 0.9 3.5 0.00 0.00 0.00 44 1015.6
20260903180058 102 219 0.0 5.2 0.00 0.00 0.00 51 1015.7
20260903175523 101 175 0.9 5.2 0.00 0.00 0.00 52 1015.9
20260903175022 100 248 0.9 3.5 0.00 0.00 0.00 52 1015.9
20260903174543 100 75 0.0 5.2 0.00 0.00 0.00 48 1015.9
20260903174024 99 0 0.0 5.2 0.00 0.00 0.00 52 1015.9
20260903173520 99 0 0.9 5.2 0.00 0.00 0.00 49 1016.0
20260903173041 98 189 0.0 2.6 0.00 0.00 0.00 54 1016.1
20260903172518 98 0 0.0 2.6 0.00 0.00 0.00 50 1016.2
20260903172018 98 0 0.0 1.7 0.00 0.00 0.00 50 1016.2
20260903171544 98 154 0.0 2.6 0.00 0.00 0.00 55 1016.3
20260903171018 97 0 0.0 2.6 0.00 0.00 0.00 51 1016.4
20260903170522 97 0 0.0 2.6 0.00 0.00 0.00 52 1016.4
20260903170126 97 0 0.0 3.5 0.00 0.00 0.00 50 1016.6
20260903165521 97 0 0.0 3.5 0.00 0.00 0.00 51 1016.5
20260903165023 97 88 0.0 6.1 0.00 0.00 0.00 51 1016.7
20260903164549 97 0 0.9 6.1 0.00 0.00 0.00 50 1016.8
20260903164021 98 119 0.9 4.3 0.00 0.00 0.00 48 1016.8
20260903163518 98 65 0.9 4.3 0.00 0.00 0.00 51 1016.8
20260903163040 98 0 0.0 7.0 0.00 0.00 0.00 50 1016.9
20260903162526 98 15 1.7 7.0 0.00 0.00 0.00 49 1017.0
20260903162023 98 0 0.9 4.3 0.00 0.00 0.00 50 1017.0
20260903161552 97 42 0.0 2.6 0.00 0.00 0.00 54 1017.2
20260903161021 97 0 0.0 4.3 0.00 0.00 0.00 52 1017.2
20260903160525 97 336 0.0 4.3 0.00 0.00 0.00 53 1017.2
20260903160045 97 38 0.0 3.5 0.00 0.00 0.00 53 1017.3
20260903155526 97 44 0.0 1.7 0.00 0.00 0.00 57 1017.4
20260903155020 96 0 0.0 3.5 0.00 0.00 0.00 55 1017.3
20260903154551 96 41 0.0 3.5 0.00 0.00 0.00 55 1017.3
20260903154025 96 37 0.9 3.5 0.00 0.00 0.00 54 1017.4
20260903153526 95 0 0.0 1.7 0.00 0.00 0.00 57 1017.3
20260903153044 95 0 0.0 2.6 0.00 0.00 0.00 61 1017.3
20260903152521 94 0 0.0 4.3 0.00 0.00 0.00 60 1017.3
20260903152024 93 0 0.0 4.3 0.00 0.00 0.00 60 1017.2
20260903151548 93 15 0.9 4.3 0.00 0.00 0.00 58 1017.3
20260903151018 93 0 0.0 2.6 0.00 0.00 0.00 60 1017.2
20260903150520 92 0 0.0 2.6 0.00 0.00 0.00 61 1017.2
20260903150046 92 0 0.0 2.6 0.00 0.00 0.00 63 1017.2
20260903145520 92 60 0.0 1.7 0.00 0.00 0.00 64 1017.3
20260903145017 91 0 0.0 1.7 0.00 0.00 0.00 66 1017.4
20260903144540 91 0 0.0 1.7 0.00 0.00 0.00 65 1017.3
20260903144022 91 0 0.0 1.7 0.00 0.00 0.00 67 1017.4
20260903143521 90 0 0.0 1.7 0.00 0.00 0.00 67 1017.4
20260903143038 90 0 0.0 1.7 0.00 0.00 0.00 66 1017.2
20260903142518 90 0 0.0 1.7 0.00 0.00 0.00 68 1017.2
20260903142025 89 0 0.0 0.9 0.00 0.00 0.00 70 1017.2
20260903141541 89 0 0.0 1.7 0.00 0.00 0.00 69 1017.1
20260903141017 88 39 0.0 1.7 0.00 0.00 0.00 69 1017.1
20260903140517 88 39 0.0 3.5 0.00 0.00 0.00 68 1017.2
20260903140055 88 0 0.0 3.5 0.00 0.00 0.00 70 1017.0
20260903135517 88 0 0.0 1.7 0.00 0.00 0.00 69 1017.1
20260903135022 87 0 0.0 1.7 0.00 0.00 0.00 71 1017.1
20260903134544 87 0 0.0 1.7 0.00 0.00 0.00 71 1017.2
20260903134018 86 0 0.0 1.7 0.00 0.00 0.00 72 1017.3
20260903133525 86 0 0.0 1.7 0.00 0.00 0.00 72 1017.4
20260903133042 85 0 0.0 1.7 0.00 0.00 0.00 74 1017.3
20260903132518 84 0 0.0 1.7 0.00 0.00 0.00 74 1017.3
20260903132017 83 0 0.0 1.7 0.00 0.00 0.00 74 1017.2
20260903131542 82 0 0.0 0.0 0.00 0.00 0.00 73 1017.3
20260903131018 81 0 0.0 0.0 0.00 0.00 0.00 71 1017.3
20260903130521 80 0 0.0 0.0 0.00 0.00 0.00 71 1017.1
20260903130041 79 0 0.0 1.7 0.00 0.00 0.00 68 1017.2
20260903125517 79 0 0.0 1.7 0.00 0.00 0.00 67 1017.1
20260903125020 78 0 0.0 0.9 0.00 0.00 0.00 62 1017.1
20260903124539 78 140 0.0 0.0 0.00 0.00 0.00 57 1017.1
20260903124021 78 0 0.0 0.9 0.00 0.00 0.00 54 1017.3
20260903123521 78 0 0.0 0.9 0.00 0.00 0.00 46 1017.3
20260903123043 77 0 0.0 0.0 0.00 0.00 0.00 43 1017.4
20260903122520 77 0 0.0 0.0 0.00 0.00 0.00 40 1017.2
20260903122019 77 0 0.0 0.0 0.00 0.00 0.00 42 1017.3
20260903121540 77 0 0.0 0.0 0.00 0.00 0.00 39 1017.2
20260903121024 76 0 0.0 0.0 0.00 0.00 0.00 40 1017.2
20260903120520 76 0 0.0 0.0 0.00 0.00 0.00 41 1017.1
20260903120047 76 0 0.0 0.0 0.00 0.00 0.00 41 1017.1